User: anonymous   Login
Location: Unspecified
(0.0000°N, 0.0000°E)
Time: 03:30:29
(UTC+00:00)
Language:

GALILEO 11 (268) - Orbit

View from above orbital plane
View from above orbital plane
View from above satellite
View from above satellite

Ground track
Ground track

The orbit data is extracted from the following two-line orbital elements,

1 41175U 15079B   17345.77789513 +.00000075 +00000-0 +00000-0 0  9999
2 41175 054.9193 186.8078 0002244 321.8927 038.1561 01.70473437012354
Epoch (UTC): 11 December 2017 18:40:10
Eccentricity: 0.0002244
inclination: 54.9193°
perigee height: 23215 km
apogee height: 23228 km
right ascension of ascending node: 186.8078°
argument of perigee: 321.8927°
revolutions per day: 1.70473437
mean anomaly at epoch: 38.1561°
orbit number at epoch: 1235

The dashed part of the orbit path shows where the satellite is in the earth's shadow,  

DLR